Location: PSU-Greenbush Astrophysical Observatory
(37.5140°N, 94.9880°W)
Time: 00:49:48
(UTC-06:00)

Transit 2A - Pass Details

Date: 02 February 2020
Orbit: 600 x 959 km, 66.7° (Epoch: 20 February)

Event Time Altitude Azimuth Distance (km) Brightness Sun altitude
Rises 19:06:13 0° 247° (WSW) 2,875 10.6 -16.4°
Reaches altitude 10° 19:09:10 10° 268° (W) 1,949 9.4 -17.0°
Maximum altitude 19:12:03 17° 310° (NW) 1,529 8.1 -17.6°
Drops below altitude 10° 19:14:56 10° 352° (N) 1,948 8.1 -18.1°
Enters shadow 19:17:26 - 10° (N) 2,719 8.7 -18.6°
Sets 19:17:54 0° 13° (NNE) 2,874 - -18.7°
